[[{"header":{"parameterUnit":"m.s-1","parameterCategory":1,"la1":30.2991,"la2":30.254,"lo1":-89.0895,"lo2":-89.0444,"dy":0.0017,"dx":0.0017,"nx":28,"ny":28,"refTime":"2025-07-15T21:00:00:Z","depth":0,"parameterNumber":2,"parameterNumberName":"U-component_of_WINDS"},"data":[0,0,0,0,0,0,0,0,0,0,0,0,0,0,0,0,0,0,0,0,0,0,0,0,0,0,0,0,0,0,0,0,0,0,0,0,0,0,0,0,0,0,0,0,0,0,0,0,0,0,0,0,0,0,0,0,0,0,3.1374,3.1376,0,3.1548,3.155,3.1552,3.1507,3.1504,3.15,3.1497,3.1682,3.169,3.1698,0,0,0,0,0,0,0,0,0,0,0,0,0,3.1009,3.1016,3.1374,3.1376,3.1378,3.1548,3.1551,3.1553,3.1508,3.1504,3.15,3.1496,3.168,3.1689,3.1699,0,0,0,0,0,0,0,0,0,0,0,0,0,3.1174,3.1018,3.1374,3.1376,3.1378,3.1548,3.1551,3.1554,3.1509,3.1504,3.1498,3.1494,3.1676,3.1688,3.17,3.188,0,0,3.1738,3.1743,0,0,0,0,0,0,0,0,3.1165,3.1188,3.1374,3.1376,3.1379,3.1501,3.149,3.1663,3.151,3.146,3.1497,3.1491,3.1626,3.1642,3.1687,3.1888,3.1896,3.1739,3.1746,3.1751,3.1755,0,0,0,0,0,0,0,3.1154,3.118,3.1443,3.1377,3.138,3.1371,3.1389,3.1522,3.157,3.1463,3.1461,3.1481,3.1627,3.1675,3.1691,3.1899,3.1738,3.1749,3.1757,3.1762,3.2258,3.2264,0,0,0,0,0,0,3.1139,3.1171,3.1438,3.1448,3.1257,3.1382,3.1402,3.1467,3.1569,3.1579,3.1486,3.1479,3.1657,3.1677,3.1697,3.1914,3.1751,3.1763,3.177,3.2252,3.2259,3.2266,0,0,0,0,0,0,3.1131,3.1163,3.1431,3.1309,3.1342,3.1394,3.1467,3.1473,3.1521,3.1585,3.1594,3.1526,3.1653,3.168,3.1834,3.192,3.1768,3.1779,3.2245,3.2254,3.2263,3.2349,0,0,0,0,0,0,3.1121,3.1161,3.1228,3.1311,3.1349,3.1563,3.1473,3.148,3.1542,3.1534,3.1625,3.1635,3.1651,3.1816,3.1847,3.1934,3.1789,3.2238,3.2249,3.226,3.2339,3.236,3.2378,0,0,0,0,0,3.1108,3.1247,3.1231,3.1264,3.1433,3.1568,3.159,3.1604,3.1549,3.1617,3.1659,3.1632,3.1906,3.1833,3.1866,3.1959,3.2233,3.2246,3.2259,3.233,3.2356,3.2377,0,0,0,0,0,0,3.1174,3.1257,3.1241,3.141,3.1482,3.156,3.1647,3.163,3.1721,3.1711,3.1726,3.1747,3.1905,3.1948,3.1864,3.2138,3.2061,3.2082,3.2104,3.2129,3.2148,3.2134,3.1799,0,0,0,0,0,3.1208,3.1309,3.1377,3.1519,3.1556,3.1596,3.1655,3.1659,3.1735,3.1766,3.1819,3.1896,3.1999,3.2066,3.2165,3.2345,3.2365,3.2426,3.2445,3.2461,3.2478,3.2577,3.2605,3.2309,3.2309,3.2309,0,0,3.128,3.1338,3.14,3.1534,3.159,3.1696,3.1622,3.1736,3.1816,3.1784,3.1932,3.1974,3.2061,3.2229,3.2306,3.227,3.2565,3.2477,3.2489,3.2499,3.2594,3.2622,3.2647,3.2318,3.2316,3.2315,0,0,3.1464,3.1517,3.1642,3.17,3.1785,3.1811,3.1841,3.1922,3.1948,3.2097,3.2076,3.2172,3.2349,3.2411,3.2467,3.2676,3.2655,3.2708,3.2809,3.2906,3.2929,3.295,3.3025,3.3052,3.2725,3.2726,3.2726,0,3.1542,3.1698,3.1709,3.1825,3.1885,3.186,3.1988,3.2044,3.2159,3.2202,3.2159,3.2381,3.2438,3.2621,3.2672,3.2717,3.2753,3.2697,3.2925,3.2946,3.2965,3.3037,3.3065,3.2732,3.2731,3.273,3.273,0,3.1791,3.19,3.1991,3.21,3.217,3.2292,3.2323,3.2393,3.2392,3.2423,3.2576,3.2644,3.2755,3.2799,3.28,3.2983,3.2958,3.292,3.2843,3.2999,3.3067,3.3094,3.274,3.2738,3.2736,3.2735,0,0,3.202,3.2134,3.2167,3.2216,3.2309,3.2395,3.2517,3.2624,3.2685,3.2765,3.2868,3.3019,3.2985,3.3048,3.3056,3.3141,3.3303,3.3093,3.3095,3.3129,3.3509,3.3536,3.3568,3.329,3.3295,3.33,3.3502,0,3.2212,3.2423,3.2437,3.2629,3.2731,3.2709,3.2816,3.2886,3.2918,3.3011,3.3048,3.3155,3.3101,3.3139,3.3222,3.3265,3.3379,3.3251,3.3388,3.3392,3.3365,3.3603,3.3632,3.382,3.3528,3.3533,3.3536,0,3.2464,3.255,3.2751,3.2831,3.2874,3.2969,3.3069,3.3157,3.3237,3.3255,3.3326,3.3322,3.3449,3.3369,3.3545,3.3457,3.3514,3.3544,3.3552,3.3565,3.3473,3.3622,3.388,3.3908,3.3578,3.3574,3.3571,0,3.261,3.2777,3.2919,3.2962,3.3059,3.3126,3.317,3.3244,3.3308,3.3397,3.3439,3.3542,3.3599,3.368,3.3705,3.3644,3.3881,3.3802,3.39,3.39,3.395,3.3947,3.422,3.3989,3.3988,3.3988,3.3987,0,3.2822,3.2947,3.2986,3.3074,3.3213,3.3229,3.3367,3.3407,3.3474,3.3571,3.356,3.3651,3.3679,3.3776,3.3797,3.394,3.3966,3.3985,3.3989,3.3986,3.3983,3.4023,3.401,3.3995,3.3994,3.3992,3.3991,0,3.3009,3.304,3.3194,3.3272,3.3295,3.3395,3.3463,3.3548,3.3579,3.3702,3.3732,3.3782,3.3896,3.3929,3.4066,3.408,3.4248,3.4241,3.422,3.422,3.4316,3.4307,3.4625,3.4667,3.4408,3.441,3.4413,0,3.3142,3.3236,3.3325,3.3388,3.3434,3.3536,3.36,3.3621,3.3689,3.3788,3.3862,3.3974,3.4064,3.4247,3.4297,3.4403,3.4397,3.4502,3.4413,3.4407,3.4398,3.4392,3.4402,3.4518,3.4521,3.4523,3.4525,0,3.3374,3.3385,3.3477,3.3577,3.3654,3.3734,3.381,3.3863,3.3895,3.3973,3.4088,3.4158,3.4297,3.4409,3.4516,3.4563,3.4551,3.4552,3.4581,3.4577,3.4561,3.4571,3.4265,3.4545,3.4543,3.4541,3.454,3.4539,3.3537,3.3621,3.3696,3.38,3.386,3.3932,3.4016,3.4057,3.4153,3.4266,3.4274,3.4398,3.4478,3.462,3.4673,3.4772,3.4742,3.4783,3.4793,3.4803,3.4811,3.4546,3.4792,3.4792,3.4791,3.4791,3.479,0,3.3768,3.3816,3.3912,3.4018,3.4101,3.408,3.4164,3.4235,3.4344,3.4418,3.4507,3.464,3.4749,3.4807,3.4916,3.4984,3.4981,3.5012,3.5007,3.5018,3.4832,3.4796,3.5013,3.5013,3.5013,3.5013,3.5013,3.5013,3.3898,3.4038,3.4058,3.4229,3.4276,3.4396,3.4446,3.4513,3.4573,3.4721,3.481,3.4847,3.4916,3.503,3.5129,3.5144,3.5184,3.5219,3.523,3.5054,3.5031,3.501,3.4976,3.5227,3.5228,3.5408,3.541,3.5411]},{"header":{"parameterUnit":"m.s-1","parameterCategory":1,"la1":30.2991,"la2":30.254,"lo1":-89.0895,"lo2":-89.0444,"dy":0.0017,"dx":0.0017,"nx":28,"ny":28,"refTime":"2025-07-15T21:00:00:Z","depth":0,"parameterNumber":3,"parameterNumberName":"V-component_of_WINDS"},"data":[0,0,0,0,0,0,0,0,0,0,0,0,0,0,0,0,0,0,0,0,0,0,0,0,0,0,0,0,0,0,0,0,0,0,0,0,0,0,0,0,0,0,0,0,0,0,0,0,0,0,0,0,0,0,0,0,0,0,1.7844,1.7844,0,1.789,1.7891,1.7891,1.7837,1.7835,1.7833,1.7831,1.788,1.7883,1.7886,0,0,0,0,0,0,0,0,0,0,0,0,0,1.7707,1.7709,1.7843,1.7844,1.7845,1.789,1.7891,1.7891,1.7837,1.7835,1.7832,1.783,1.7879,1.7883,1.7887,0,0,0,0,0,0,0,0,0,0,0,0,0,1.7761,1.771,1.7843,1.7823,1.7822,1.789,1.7891,1.7892,1.7838,1.7835,1.7832,1.7829,1.7878,1.7883,1.7887,1.7978,0,0,1.7902,1.7904,0,0,0,0,0,0,0,0,1.7758,1.7766,1.7826,1.7825,1.7823,1.7855,1.786,1.7921,1.7839,1.7832,1.7831,1.7827,1.7874,1.7879,1.7895,1.798,1.7982,1.7902,1.7905,1.7907,1.7909,0,0,0,0,0,0,0,1.7754,1.7764,1.7862,1.7826,1.7825,1.7811,1.7816,1.7872,1.787,1.7832,1.7828,1.7835,1.7873,1.789,1.7895,1.7983,1.7902,1.7907,1.791,1.7911,1.8141,1.8144,0,0,0,0,0,0,1.7753,1.7761,1.786,1.7863,1.7782,1.7816,1.7821,1.7848,1.7869,1.7869,1.7837,1.7832,1.7883,1.789,1.7897,1.8002,1.7907,1.7912,1.7915,1.8138,1.8142,1.8145,0,0,0,0,0,0,1.775,1.7762,1.7859,1.7811,1.7822,1.7822,1.7852,1.785,1.7867,1.7873,1.7872,1.7855,1.7881,1.789,1.7957,1.8003,1.7914,1.7918,1.8134,1.8139,1.8144,1.8214,0,0,0,0,0,0,1.7746,1.7762,1.7797,1.7812,1.7825,1.7919,1.7855,1.7853,1.7875,1.7869,1.7889,1.789,1.788,1.795,1.7962,1.8008,1.7922,1.813,1.8137,1.8142,1.8207,1.822,1.8231,0,0,0,0,0,1.7742,1.7816,1.7799,1.7811,1.7869,1.7922,1.7929,1.7915,1.7879,1.7914,1.7917,1.7889,1.7996,1.7958,1.797,1.8018,1.8127,1.8135,1.8142,1.8202,1.8218,1.8231,0,0,0,0,0,0,1.7807,1.7818,1.7799,1.788,1.79,1.7912,1.7956,1.7933,1.7965,1.7957,1.794,1.7945,1.8015,1.8024,1.7981,1.8105,1.8056,1.8066,1.8097,1.8112,1.8124,1.812,1.7926,0,0,0,0,0,1.7831,1.7873,1.788,1.7951,1.7961,1.7957,1.798,1.7967,1.7987,1.7996,1.8004,1.8025,1.8062,1.8088,1.8123,1.8208,1.821,1.8247,1.8259,1.8269,1.8278,1.832,1.8335,1.8169,1.8169,1.8169,0,0,1.7881,1.7891,1.7919,1.7964,1.7978,1.8021,1.7965,1.8014,1.8045,1.8003,1.8066,1.8073,1.8094,1.817,1.8204,1.8179,1.8324,1.8278,1.8286,1.8289,1.8329,1.8344,1.8358,1.8174,1.8173,1.8173,0,0,1.7993,1.8006,1.8065,1.8079,1.81,1.8096,1.811,1.8125,1.8127,1.819,1.8159,1.8196,1.8262,1.8278,1.8295,1.8409,1.8383,1.8421,1.8483,1.8525,1.8538,1.8549,1.8587,1.8601,1.8429,1.843,1.843,0,1.8052,1.8115,1.8098,1.8148,1.8167,1.813,1.8188,1.8204,1.8236,1.825,1.8222,1.8301,1.8314,1.8391,1.8418,1.8434,1.8448,1.8418,1.8537,1.8548,1.8559,1.8595,1.861,1.8434,1.8433,1.8433,1.8433,0,1.8185,1.823,1.8275,1.8304,1.8329,1.8383,1.8373,1.84,1.8384,1.8383,1.8445,1.8459,1.8494,1.8512,1.8499,1.8586,1.8569,1.854,1.849,1.8579,1.8612,1.8626,1.844,1.8438,1.8437,1.8436,0,0,1.8342,1.8358,1.8375,1.8386,1.8405,1.8439,1.849,1.8524,1.8546,1.8569,1.861,1.8665,1.8636,1.8656,1.8643,1.868,1.8765,1.8645,1.8645,1.8665,1.8859,1.888,1.8896,1.8748,1.8751,1.8753,1.8856,0,1.8452,1.8539,1.8524,1.8609,1.8648,1.8611,1.8655,1.8671,1.8671,1.8703,1.8703,1.8741,1.8702,1.8712,1.8747,1.8748,1.8804,1.874,1.8785,1.8787,1.8779,1.8914,1.8937,1.9034,1.8869,1.8872,1.8873,0,1.8593,1.8618,1.8706,1.8715,1.8731,1.8771,1.8798,1.883,1.8847,1.8843,1.8863,1.8843,1.8892,1.8841,1.8908,1.8865,1.8882,1.8885,1.8889,1.8891,1.8835,1.8919,1.9065,1.9079,1.8894,1.8893,1.8891,0,1.8694,1.8751,1.8809,1.8821,1.8834,1.8862,1.8869,1.8882,1.8902,1.8926,1.8938,1.8969,1.8985,1.9009,1.8997,1.8961,1.9064,1.9014,1.9062,1.9062,1.9084,1.9083,1.9234,1.9099,1.9099,1.9098,1.9098,0,1.8818,1.8873,1.8855,1.8891,1.895,1.8931,1.8991,1.8993,1.9005,1.904,1.9011,1.9045,1.9027,1.906,1.9051,1.9105,1.9114,1.9111,1.9108,1.9113,1.9113,1.9123,1.9115,1.9102,1.9101,1.91,1.91,0,1.8941,1.8932,1.8993,1.8999,1.9002,1.9045,1.905,1.9083,1.9079,1.9124,1.9133,1.9127,1.9163,1.9153,1.9193,1.9187,1.9255,1.9244,1.9249,1.9246,1.9293,1.9288,1.9455,1.9475,1.9329,1.933,1.9331,0,1.902,1.9061,1.907,1.9091,1.9099,1.9134,1.9153,1.9135,1.9156,1.9176,1.9206,1.9239,1.9264,1.9323,1.9322,1.9351,1.934,1.9396,1.9344,1.9346,1.9338,1.9335,1.9337,1.9406,1.9408,1.9409,1.941,0,1.916,1.9152,1.9181,1.9207,1.923,1.925,1.9268,1.9286,1.9269,1.9295,1.933,1.9349,1.9388,1.942,1.9446,1.9453,1.9428,1.9426,1.9439,1.9443,1.9444,1.9441,1.9275,1.9423,1.9421,1.942,1.942,1.9419,1.9262,1.9295,1.9305,1.9337,1.9348,1.9364,1.9394,1.9392,1.9421,1.945,1.9438,1.9478,1.949,1.9522,1.9532,1.9562,1.9541,1.956,1.9564,1.9568,1.9573,1.944,1.9568,1.9567,1.9567,1.9566,1.9566,0,1.9398,1.9402,1.9431,1.9455,1.9479,1.9453,1.947,1.9492,1.9527,1.954,1.9565,1.9604,1.9634,1.9634,1.9662,1.9686,1.9676,1.9694,1.9691,1.9693,1.9592,1.9577,1.9702,1.9702,1.9702,1.9702,1.9702,1.9702,1.9472,1.9525,1.9518,1.9575,1.9579,1.9617,1.9628,1.9642,1.9652,1.9696,1.9721,1.972,1.9727,1.9755,1.9781,1.978,1.9791,1.9813,1.9808,1.9714,1.97,1.9687,1.9673,1.9816,1.9816,1.9906,1.9907,1.9907]}]]